Location: Ariel
(45.9570°N, 122.5700°W)
Time: 00:58:03
(UTC-07:00)

Tiros 1 - Pass Details

Date: 29 July 2019
Orbit: 631 x 664 km, 48.4° (Epoch: 23 August)

Event Time Altitude Azimuth Distance (km) Brightness Sun altitude
Rises 12:04:29 0° 262° (W) 2,978 10.4 58.9°
Reaches altitude 10° 12:06:50 10° 264° (W) 2,071 9.7 59.1°
Maximum altitude 12:11:37 72° 349° (N) 697 8.1 59.6°
Drops below altitude 10° 12:16:26 10° 75° (ENE) 2,084 10.0 60.0°
Sets 12:18:48 0° 77° (ENE) 2,998 10.7 60.2°
